RH
60 69 72 44 20 10 10 16 17 9 5 3 2 2 4 2 2 2 2 2 2 1 1 1 2 4 3 3 7 8 9 19 8 15 49 49 94 92 75 64 68 62 65 65
79 58 32 18 13 21 20 30 24 8 4 2 2 5 2 1 1 1 1 1 1 1 1 1 1 3 17 11 22 39 39 27 73 14 36 42 30 95 52 72 72 62 67 70
28 16 13 19 13 20 11 2 1 1 1 1 2 3 3 5 3 5 5 5 6 7 7 9 13 12 11 12 35 91 100 91 41 71 13 98 41 94 96 79 55 62 82 83
9 7 5 4 2 1 1 1 1 1 1 2 7 39 36 38 46 49 54 50 60 68 53 48 42 39 67 82 76 31 90 100 100 93 18 33 98 51 96 93 48 71 80 92
2 1 1 1 1 1 1 1 1 2 6 22 60 98 100 91 86 99 99 91 81 67 61 68 70 69 61 48 55 80 51 94 97 92 22 46 40 99 91 91 77 68 97 98
2 1 1 1 1 1 1 2 5 29 86 93 100 100 100 99 84 67 65 67 55 50 56 54 49 50 59 69 66 51 76 57 61 99 46 49 38 98 83 85 83 82 96 92
2 2 2 1 2 3 6 11 28 92 100 100 92 87 91 73 57 47 54 56 53 46 46 60 66 51 53 59 69 65 44 69 52 96 100 29 79 89 69 71 78 95 92 96
2 2 2 3 4 7 28 51 48 64 89 100 97 95 72 60 65 66 60 50 50 51 52 54 57 68 72 76 68 66 64 45 64 56 99 62 67 58 60 62 52 64 87 100
2 3 4 8 15 34 38 55 73 70 100 89 71 78 71 74 77 68 55 66 65 58 83 84 62 72 82 82 86 92 58 57 44 34 52 99 83 63 76 36 98 45 81 96
3 5 9 22 85 76 70 57 70 68 96 88 84 81 93 95 84 83 96 96 100 85 100 100 100 100 96 97 100 100 83 54 50 46 64 88 82 51 55 84 62 70 92 92
4 13 28 91 73 46 60 60 56 78 100 99 97 100 100 92 100 100 100 99 99 100 99 100 100 100 100 97 81 100 95 66 84 57 54 80 89 99 78 92 93 98 84 80
7 38 70 100 80 83 65 56 80 91 100 100 100 100 100 100 100 91 92 93 94 95 95 97 98 100 100 100 100 100 100 100 71 94 92 88 96 99 81 87 96 97 83 71
12 37 65 60 79 92 72 59 95 100 100 96 100 100 99 93 86 96 91 83 75 72 61 82 98 100 100 100 100 100 100 100 95 100 100 91 96 89 58 98 96 96 80 86
12 31 44 50 60 77 80 88 97 100 100 97 95 83 84 77 77 71 68 65 60 55 49 39 40 92 98 99 100 100 100 100 100 94 63 79 98 74 96 94 99 97 98 97
7 5 7 25 44 68 64 72 78 87 92 92 92 86 65 57 53 50 47 45 42 41 36 33 31 28 79 100 100 100 100 100 100 100 75 94 98 71 71 96 84 93 93 97
12 8 6 10 100 54 59 56 58 66 62 54 59 57 52 45 35 36 38 34 31 28 27 27 26 22 18 26 94 98 100 100 100 100 89 89 65 92 98 98 85 71 98 99
15 14 10 14 93 100 100 73 84 80 68 55 42 32 31 35 36 38 31 28 24 21 17 15 16 18 17 16 21 64 89 100 100 100 98 96 99 87 97 97 98 94 89 69
17 18 15 12 40 83 92 100 91 79 67 47 37 42 52 43 32 34 29 24 19 16 16 14 12 16 16 14 12 15 45 72 100 100 100 100 80 71 60 67 78 80 73 57
19 23 21 17 14 22 18 28 29 22 29 100 82 60 98 43 38 24 14 11 11 12 11 10 10 12 13 12 10 9 11 28 44 85 98 97 100 93 73 58 53 38 38 35
22 26 27 27 23 21 15 12 12 11 19 41 79 48 9 8 8 9 9 9 9 9 8 7 7 8 9 7 7 7 7 7 10 24 67 65 87 97 96 97 100 74 66 62
24 29 31 32 31 28 27 20 17 18 15 14 14 15 16 16 16 16 16 17 17 16 16 14 12 6 5 4 5 6 6 6 6 7 12 31 47 53 65 98 100 89 95 68
27 27 30 33 36 36 40 36 32 28 26 26 25 26 26 25 24 24 22 19 18 18 18 20 19 16 14 11 6 5 4 5 5 5 6 7 9 23 38 31 66 92 95 100
28 28 31 34 39 43 42 46 50 51 52 52 52 50 45 39 33 30 28 26 24 20 19 19 20 20 18 16 14 13 10 7 6 5 4 5 5 6 8 19 11 27 40 76
21 23 27 31 35 44 42 40 43 46 49 49 62 69 70 68 68 66 57 49 43 36 32 32 32 28 25 22 20 18 17 15 10 7 6 4 4 4 4 4 5 5 10 25
22 21 23 26 26 32 36 42 45 45 44 42 50 53 58 71 77 76 75 75 70 62 58 52 47 45 40 36 34 30 24 19 17 14 9 6 5 5 4 4 4 4 4 4
27 27 27 24 24 29 34 39 41 47 44 45 46 40 46 48 63 73 82 84 77 71 63 57 54 51 52 52 46 40 32 23 20 16 13 10 8 6 5 4 4 3 3 3
Wind_Speed
57 53 49 45 44 44 44 47 48 50 52 54 56 57 60 61 61 64 67 69 71 69 71 72 72 72 72 71 70 71 65 62 62 64 61 56 56 59 57 54 50 48 47 44
39 38 41 43 44 45 48 50 52 53 58 58 56 57 66 66 65 67 69 70 70 72 73 76 78 76 76 76 77 74 74 71 62 68 67 62 53 63 56 58 52 50 50 46
34 36 39 43 46 49 52 54 55 56 57 56 57 58 57 56 60 59 59 57 57 57 58 61 65 71 75 79 85 83 78 77 76 74 70 51 65 59 66 61 56 53 52 48
35 39 41 44 48 49 52 56 56 57 57 51 45 28 32 36 35 32 33 29 32 36 41 43 45 49 53 53 51 67 88 81 81 78 72 64 65 72 61 58 55 54 57 55
38 40 43 47 50 53 55 56 54 47 39 26 13 15 31 30 31 31 33 33 36 35 37 45 49 52 51 57 51 42 46 87 81 80 70 70 69 70 70 59 58 57 64 63
38 43 46 48 49 52 51 47 41 16 4 9 12 18 23 22 22 22 27 26 29 32 41 43 48 46 51 54 53 48 44 58 90 77 76 59 77 55 59 60 64 63 67 76
41 43 45 46 44 41 39 32 17 7 10 8 21 23 25 24 26 25 26 25 25 27 31 28 30 35 37 37 48 51 52 49 77 93 84 73 84 61 59 65 66 66 66 77
37 38 37 36 33 30 27 22 14 3 7 16 19 22 21 17 19 18 19 22 25 34 35 32 29 28 34 39 39 41 50 46 44 96 84 86 71 61 63 65 74 59 81 52
33 33 30 22 25 23 21 17 13 8 12 16 15 12 14 14 16 21 22 26 30 33 37 41 41 40 26 24 23 29 43 49 47 49 84 81 80 72 73 67 44 76 58 60
30 29 23 15 16 16 20 9 9 13 13 9 12 13 7 8 15 22 22 25 19 24 22 24 29 27 33 26 21 19 28 45 55 62 75 94 74 78 70 64 68 65 59 68
31 26 17 14 17 17 13 10 16 10 7 8 12 8 8 8 15 15 18 19 19 15 22 37 21 20 18 32 31 28 21 39 37 55 62 81 80 66 72 64 51 76 66 62
29 17 10 5 18 22 23 17 5 5 6 9 13 7 7 11 14 19 22 23 26 29 38 40 44 37 22 22 27 25 17 11 30 47 49 81 65 54 67 74 25 61 70 68
23 14 4 11 12 13 18 16 16 10 4 5 5 8 9 11 15 20 22 27 29 36 42 45 47 47 52 31 31 15 14 16 20 31 42 63 51 57 66 52 57 43 62 73
20 13 15 12 12 10 15 14 13 5 2 12 14 13 17 20 22 24 25 28 30 33 35 38 41 46 49 52 39 30 1 22 19 26 56 70 35 56 34 49 63 51 55 52
26 22 19 17 11 11 15 15 10 11 8 11 14 15 21 22 23 25 26 29 32 33 35 38 38 41 44 45 48 41 25 9 20 31 36 52 55 52 57 61 61 54 51 62
31 28 26 19 12 15 19 21 20 17 20 19 21 24 25 27 28 28 29 29 32 34 37 41 43 43 44 40 41 44 43 23 12 18 31 42 61 65 43 37 58 77 51 47
28 27 27 20 8 20 21 26 24 25 26 27 26 26 27 29 29 30 30 33 36 39 39 41 43 45 41 41 37 35 35 36 24 6 31 37 51 58 64 52 39 56 63 56
27 27 25 20 16 9 19 22 29 31 31 30 28 24 25 33 36 37 38 39 41 42 42 42 41 40 42 42 37 32 30 30 28 23 6 27 36 47 52 59 61 49 56 58
26 25 24 22 20 19 16 19 21 23 23 17 26 23 26 30 38 40 44 41 41 41 37 40 43 41 40 42 41 37 28 25 24 22 21 12 8 32 46 47 50 59 59 56
23 24 23 24 24 24 19 21 22 17 21 20 25 30 27 29 28 25 26 27 24 22 22 23 30 39 41 37 40 38 39 33 26 21 20 17 19 9 20 41 45 49 50 53
24 23 22 23 23 24 22 19 21 22 20 20 21 22 23 26 27 27 27 27 25 25 23 23 25 22 23 25 31 34 36 37 37 27 24 21 19 17 19 11 24 44 56 55
22 23 23 23 23 23 23 22 21 22 23 24 24 24 24 25 26 28 29 28 27 26 26 26 26 26 23 24 21 22 25 29 33 36 33 30 27 20 20 21 21 18 28 33
19 22 23 23 23 24 24 21 20 21 21 21 24 25 25 26 26 26 27 28 29 29 28 26 25 25 24 23 24 20 16 17 20 24 29 34 33 34 30 28 27 27 25 22
21 21 22 24 24 23 24 23 25 26 28 28 28 28 28 27 28 28 29 29 29 28 26 26 24 24 23 23 24 23 22 19 17 18 20 23 29 33 34 35 33 31 28 30
22 23 24 25 26 27 27 26 26 28 29 29 29 30 31 30 30 31 31 31 32 31 30 29 27 25 25 24 24 25 25 24 23 21 17 19 22 23 28 32 34 32 32 32
21 22 23 24 28 27 27 27 27 27 31 31 31 32 31 32 31 31 30 31 33 33 33 33 32 30 28 26 25 26 27 26 24 23 20 20 19 19 20 24 29 31 31 33
Wind_Direction
288 286 285 288 288 291 293 295 294 292 287 286 286 284 272 274 276 277 277 276 273 269 268 265 260 257 257 256 254 257 250 242 246 252 247 241 239 235 229 230 231 233 235 237
289 285 287 292 294 295 292 294 293 291 289 287 285 280 279 280 280 278 274 271 268 266 265 262 260 254 250 250 249 244 245 243 230 242 248 239 235 235 232 233 229 232 234 238
291 290 293 294 293 293 292 291 287 288 286 284 283 281 282 281 281 279 278 277 276 273 266 267 265 260 256 244 238 237 233 239 233 231 236 238 230 233 230 227 225 230 232 230
293 292 294 291 290 294 291 291 291 288 288 290 288 285 276 273 277 286 289 290 291 296 295 294 289 288 273 271 258 239 230 228 224 218 234 227 234 225 232 228 229 227 232 229
295 298 299 300 298 295 295 293 294 298 302 292 251 264 269 285 283 285 288 289 296 287 294 291 284 273 271 269 269 258 243 226 224 228 230 221 230 225 217 224 229 229 234 229
305 305 304 302 300 300 300 299 304 310 186 223 240 284 310 306 311 299 300 288 304 285 289 287 286 278 267 267 263 250 249 231 223 218 228 216 218 213 217 221 226 230 232 219
310 308 309 308 308 308 309 312 314 211 190 282 308 309 317 328 321 306 317 306 308 313 319 314 294 289 288 282 260 252 247 242 225 222 214 220 226 223 224 224 222 232 229 233
314 315 318 315 312 322 328 322 312 264 251 301 310 315 320 335 320 324 327 330 338 344 334 338 337 304 286 278 273 261 247 243 230 221 217 215 212 223 220 222 227 225 233 236
330 330 334 333 328 330 339 332 301 318 323 303 295 308 315 329 337 348 349 350 352 341 336 337 340 343 314 285 289 282 244 239 236 231 211 207 215 216 216 229 227 224 232 221
342 345 347 340 339 334 339 345 300 305 317 273 290 302 322 345 2 9 7 5 358 351 6 341 339 340 342 345 322 284 263 229 228 224 221 215 210 217 222 225 228 225 227 237
356 -0 357 347 337 331 348 325 315 310 317 290 270 263 288 3 11 356 353 358 13 22 29 37 31 17 353 355 329 325 251 238 241 224 220 204 210 219 209 208 234 224 225 228
3 11 41 283 336 351 355 0 12 321 272 244 258 283 28 5 0 350 341 355 352 3 18 20 24 31 36 20 -0 327 308 256 239 233 227 218 202 213 218 219 223 223 221 226
9 351 357 324 341 345 358 13 16 9 59 350 49 35 26 7 13 13 354 -0 4 12 9 8 12 12 16 37 37 356 290 251 230 222 216 213 209 221 216 223 229 209 225 225
12 352 331 342 342 321 12 17 32 15 261 50 40 31 18 14 15 7 0 -0 2 5 4 5 6 9 10 13 31 44 334 219 221 226 217 207 214 219 216 230 226 227 227 224
23 13 346 310 308 322 333 340 341 346 340 337 333 354 356 353 354 348 351 352 351 352 353 352 356 359 3 6 9 24 43 169 220 217 210 227 223 217 229 239 234 233 245 226
21 16 10 354 300 313 307 321 316 312 314 323 317 322 326 329 334 335 337 338 338 339 342 341 342 344 346 353 357 2 9 36 176 205 233 225 223 219 236 234 232 229 237 237
20 15 13 13 350 305 295 303 306 307 306 304 309 311 312 309 318 324 324 322 323 324 327 327 327 328 334 339 348 350 357 3 31 225 237 231 234 238 244 235 236 231 237 237
19 13 10 8 0 309 306 294 306 306 304 306 300 302 314 308 303 313 314 313 314 315 316 315 317 320 322 326 332 338 344 350 357 13 74 239 243 246 249 245 246 246 240 237
19 11 7 2 0 353 344 333 328 333 324 313 309 320 323 317 315 314 316 319 316 312 313 312 309 310 313 315 318 323 327 330 339 345 355 5 226 247 242 240 247 246 241 240
21 11 5 359 355 356 352 347 342 341 329 320 306 314 317 319 319 326 327 329 335 330 339 331 318 310 307 308 309 312 314 317 315 322 322 334 335 333 239 237 234 247 242 243
17 13 4 359 354 353 347 348 332 341 337 334 335 335 331 326 330 334 333 335 344 342 350 352 356 343 321 311 306 308 307 305 303 305 299 304 312 312 323 288 252 252 249 249
8 9 6 359 355 349 348 345 341 336 336 335 331 328 326 323 324 323 324 326 328 333 344 350 355 356 359 352 341 324 311 305 303 301 294 290 289 293 292 301 300 273 249 252
5 4 1 358 353 346 348 347 335 338 334 334 331 330 331 330 325 323 323 324 326 330 333 335 340 340 346 348 350 353 341 321 312 305 298 293 285 282 280 282 285 286 291 283
2 3 3 359 358 348 345 346 344 343 339 342 338 336 327 323 322 323 322 322 321 321 324 327 332 335 335 340 339 338 337 339 331 311 297 287 285 287 287 285 286 281 277 280
357 359 359 357 1 355 352 349 343 340 339 342 339 336 334 332 326 323 320 319 316 318 317 318 320 323 325 327 328 330 330 329 325 321 312 295 282 277 276 276 277 278 278 270
352 350 348 355 356 356 352 349 345 341 337 341 336 341 337 334 331 326 322 315 314 314 315 316 319 320 321 321 321 322 322 321 321 317 315 307 295 289 281 273 271 265 261 266